Regional Weather Roundup
Issued by NWS

Home | Current Version | Previous Version | Text Only | Print | Product List | Glossary On
Versions: 1 2 3 4 5 6 7 8 9 10 11 12 13 14 15 16 17 18 19 20 21 22 23 24 25 26 27 28 29 30 31 32 33 34 35 36 37 38 39 40 41 42 43 44 45 46 47 48 49 50
000
ASUS46 KLOX 232312
RWRCA

SOUTHERN CALIFORNIA WEATHER ROUNDUP
NATIONAL WEATHER SERVICE OXNARD CALIFORNIA
400 PM PDT TUE SEP 23 2014

NOTE: "FAIR" INDICATES FEW OR NO CLOUDS BELOW 12,000 FEET WITH NO
SIGNIFICANT WEATHER AND/OR OBSTRUCTIONS TO VISIBILITY.

  -  STATIONS PRECEEDED BY AN ASTERISK (*) ARE NOT NWS OR FAA
     STATIONS AND ARE NOT SUBJECT TO NWS AND FAA QUALITY CONTROL.

CAZ041-042-087-240000-
LA AND ORANGE COUNTY COASTAL AREAS


CITY           SKY/WX    TMP DP  RH WIND       PRES   REMARKS
L.A. DOWNTOWN  SUNNY     80  57  45 SW3       29.89F
L.A. AIRPORT   MOSUNNY   72  63  73 W13       29.91F
LONG BEACH     SUNNY     84  59  42 NW12      29.88F

CITY           SKY/WX    TMP DP  RH WIND       PRES   REMARKS
AVALON           N/A     75 N/A N/A N3          N/A
FULLERTON      SUNNY     88  61  40 S7        29.87F
*GETTY CENTER    N/A     81  59  47 S7          N/A
HAWTHORNE      SUNNY     78  62  57 W8        29.90F
*LOS ALAMITOS  SUNNY     84  63  48 S9        29.88F
*REDONDO BEACH   N/A     72  65  78 W5        29.90S
SANTA ANA      SUNNY     82  63  52 SW8       29.89F
STA MONICA APT SUNNY     74  62  66 SW8       29.90F
TORRANCE       MOSUNNY   77  64  65 W16       29.90F
*UCLA            N/A     75  59  57 SW7G16    29.88F

$$

CAZ547-548-048-240000-
LA COUNTY VALLEYS AND INLAND EMPIRE


CITY           SKY/WX    TMP DP  RH WIND       PRES   REMARKS
BURBANK        SUNNY     88  40  18 S9G20     29.89F
VAN NUYS       SUNNY     92  28  10 S6        29.89F

CITY           SKY/WX    TMP DP  RH WIND       PRES   REMARKS
CORONA AIRPORT CLEAR     91  60  35 NW14      29.88F HX  90
*CHATSWORTH      N/A     94  37  14 SE1       29.85F
CHINO          SUNNY     95  49  20 W9        29.88F HX  92
MARCH AFB      SUNNY     96  43  16 W9        29.92F HX  92
*NORTHRIDGE      N/A     93  19   7 E3          N/A
ONTARIO        SUNNY     96  44  16 W8        29.89F HX  92
*PASADENA        N/A     91  55  29 E2          N/A
POMONA         SUNNY     93  50  22 SW8       29.93F HX  90
RIVERSIDE      SUNNY     96  49  20 W10       29.88F HX  93
SAN BERNARDINO SUNNY     95  36  12 SW6       29.89F HX  90
*SAN GABRIEL     N/A     87  49  26 CALM      29.84F
*WHITEMAN AP   SUNNY     90  37  15 S8        29.94
*WOODLAND HILL   N/A     95  23   7 E3          N/A

$$

CAZ054-055-240000-
LA AND SAN BERNARDINO COUNTY MOUNTAINS


CITY           SKY/WX    TMP DP  RH WIND       PRES   REMARKS
*ACTON           N/A     96  35  12 SW7G24      N/A  HX  91
*BIG BEAR AIRP CLEAR     73  28  19 W12       30.28S
*BIG PINES       N/A     73  15  11 S2          N/A
*CHILAO          N/A     78  19  11 SE17        N/A
MT WILSON NWS    N/A     82  39  21 MISG        N/A
SANDBERG       SUNNY     85  26  11 S17G25    30.11F
*WARM SPRINGS    N/A     85  22  10 SE5         N/A

$$

CAZ028-029-059-060-099-240000-
ANTELOPE VALLEY AND SURROUNDING AREAS


CITY           SKY/WX    TMP DP  RH WIND       PRES   REMARKS
LANCASTER      SUNNY     92  30  11 W14       29.95F
PALMDALE       SUNNY     92  29  10 CALM      29.96F

CITY           SKY/WX    TMP DP  RH WIND       PRES   REMARKS
29 PALMS       SUNNY     98  32  10 N6        29.97F HX  92
BARSTOW/DAGGET SUNNY     97  29   9 VRB5      29.91F HX  91
BISHOP         SUNNY     91  30  11 SE20G28   29.99F
CHINA LAKE     SUNNY     97  23   7 S12       29.92F HX  90
EDWARDS AFB    SUNNY     93  19   6 VRB3      29.93F
MOJAVE         FAIR      91  23   8 SW17      29.97F
NEEDLES        SUNNY    102  36  10 VRB5      29.85F HX  96
VICTORVILLE    SUNNY     93  25   8 S20       29.98F

$$

CAZ039-040-240000-
VENTURA AND SANTA BARBARA COUNTY COAST


CITY           SKY/WX    TMP DP  RH WIND       PRES   REMARKS
CAMARILLO      SUNNY     79  60  52 W10       29.91F
NWS OXNARD       N/A     74  61  63 W3        29.90F
OXNARD AIRPORT SUNNY     72  62  71 W16       29.91F
*POINT MUGU    MOSUNNY   77  61  57 W13       29.92F
SBA APT/GOLETA SUNNY     75  60  59 W9        29.91F
*SANTA BARBARA   N/A     78  60  52 NE2       29.98F
*VENTURA         N/A     77  61  57 SW3       29.96S

$$

CAZ044-045-240000-
VENTURA COUNTY VALLEYS


CITY           SKY/WX    TMP DP  RH WIND       PRES   REMARKS
*SIMI VALLEY     N/A     84  58  41 SW5       29.86S
*OJAI            N/A     93  53  25 CALM      29.82F HX  90
*FILLMORE        N/A     86  61  41 CALM      29.79F

$$

CAZ053-240000-
VENTURA COUNTY MOUNTAINS


CITY           SKY/WX    TMP DP  RH WIND       PRES   REMARKS
*LOCKWOOD VLY    N/A     81  16   9 MISG        N/A
*ROSE VALLEY     N/A     88  48  25 MISG        N/A

$$

CAZ034-035-036-240000-
CENTRAL COAST AND SANTA YNEZ VALLEY


CITY           SKY/WX    TMP DP  RH WIND       PRES   REMARKS
SAN LUIS OBISP SUNNY     74  60  61 NW13      29.94F
SANTA MARIA    MOSUNNY   73  59  61 NW17      29.96S

CITY           SKY/WX    TMP DP  RH WIND       PRES   REMARKS
*CAL POLY SLO    N/A     75  63  64 SW6         N/A
*LOMPOC        SUNNY     70  57  64 W14       29.96F
*PISMO BEACH     N/A     66  62  85 S3        29.95F
*SANTA YNEZ    FAIR      82  55  39 W16       29.92S

$$

CAZ037-038-051-240000-
SAN LUIS OBISPO COUNTY INTERIOR AND CUYAMA VALLEY


CITY           SKY/WX    TMP DP  RH WIND       PRES   REMARKS
*CUYAMA          N/A     90  46  21 W8        29.82F
PASO ROBLES    SUNNY     89  44  20 SW16G22   29.91F

$$

CAZ032-033-061-240000-
SOUTHERN DESERTS


CITY           SKY/WX    TMP DP  RH WIND       PRES   REMARKS
BLYTHE         SUNNY    103  48  15 E8        29.80F HX  99
IMPERIAL       SUNNY    104  55  19 E8        29.76F HX 102
PALM SPRINGS   SUNNY    104  40  11 E5        29.81F HX  98
THERMAL        SUNNY    103  51  17 S6        29.76F HX 100

$$

ELSEWHERE ACROSS THE WESTERN UNITED STATES AND MEXICO


CITY           SKY/WX    TMP DP  RH WIND       PRES   REMARKS
DENVER, CO     PTSUNNY   79  42  26 W15G21    30.12S
GRAND CANYON,  SUNNY     78  26  14 SW10      30.27F
HONOLULU, HI   MOSUNNY   91  61  35 NE22G29   30.02F HX  91
KAHULUI, MAUI  MOSUNNY   90  68  48 E23G32    30.00F HX  93
LAKE TAHOE, CA SUNNY     76  29  17 VRB5      30.16F
LAS VEGAS, NV  SUNNY     95  33  11 SE8       29.90F HX  90
MAMMOTH LAKES, FAIR      79  27  14 E9        30.23F
MEXICO CITY, M LGT RAIN  66  54  63 SE14G28   30.23
PHOENIX, AZ    MOSUNNY  101  45  15 NW12G21   29.83F HX  97
PORTLAND, OR   LGT RAIN  66  62  87 E8        29.82F
RENO, NV       MOSUNNY   87  27  11 S10       30.02F
SALT LAKE CITY MOSUNNY   83  47  28 NE6       30.09F
SAN DIEGO, CA  SUNNY     78  64  61 NW10      29.90F
SAN FRANCISCO, MOSUNNY   74  63  68 W20G26    29.94F
SAN JOSE, CA   MOSUNNY   77  59  53 NW12      29.91F
SEATTLE, WA    CLOUDY    65  60  84 SW3       29.84R
TIJUANA, MEX   SUNNY     81  59  47 W13       29.91F

$$

STATION/POSITION TIME  TEMP    WIND        PRES    VSBY  WAVE
                       AIR SEA DIR/SP/G                  HT/PER
                 (UTC) (F)     (DEG/KT/KT) (MB)    (MI)  (FT/S)
POINT ARGUELLO B NOT AVBL
WEST SANTA BARBA 2300   64 65  310/ 17/ 21 1012.8F         4/10
POINT CONCEPTION NOT AVBL
EAST SANTA BARBA 2300   65 68  270/ 16/ 17 1013.4F
SANTA MONICA BAY 2300   68 72  290/ 10/ 12 1012.7F         2/15


USA.gov is the U.S. government's official web portal to all federal, state and local government web resources and services.